owner,sensor,date,latitude,longitude,vertical_datum,mass_concentration_of_oxygen_in_sea_water,qcFlag 
DISL,ioos:station:DISL:DISL:1,2014-03-01T00:00:00Z,30.2513,-88.0778,2.001,9.13,1111122 
DISL,ioos:station:DISL:DISL:1,2014-03-01T00:30:00Z,30.2513,-88.0778,2.0,8.85,1111122 
DISL,ioos:station:DISL:DISL:1,2014-03-01T01:00:00Z,30.2513,-88.0778,2.004,9.59,1111122 
DISL,ioos:station:DISL:DISL:1,2014-03-01T01:30:00Z,30.2513,-88.0778,2.026,9.41,1111122 
DISL,ioos:station:DISL:DISL:1,2014-03-01T02:00:00Z,30.2513,-88.0778,2.025,9.27,1111122 
DISL,ioos:station:DISL:DISL:1,2014-03-01T02:30:00Z,30.2513,-88.0778,2.025,7.87,1111122 
DISL,ioos:station:DISL:DISL:1,2014-03-01T03:00:00Z,30.2513,-88.0778,2.035,7.57,1111122 
DISL,ioos:station:DISL:DISL:1,2014-03-01T03:30:00Z,30.2513,-88.0778,2.05,7.54,1111122 
DISL,ioos:station:DISL:DISL:1,2014-03-01T04:00:00Z,30.2513,-88.0778,2.064,7.38,1111122 
DISL,ioos:station:DISL:DISL:1,2014-03-01T04:30:00Z,30.2513,-88.0778,2.076,7.35,1111122 
DISL,ioos:station:DISL:DISL:1,2014-03-01T05:00:00Z,30.2513,-88.0778,2.072,7.38,1111122 
DISL,ioos:station:DISL:DISL:1,2014-03-01T05:30:00Z,30.2513,-88.0778,2.06,7.53,1111122 
DISL,ioos:station:DISL:DISL:1,2014-03-01T06:00:00Z,30.2513,-88.0778,2.073,8.43,1111122 
DISL,ioos:station:DISL:DISL:1,2014-03-01T06:30:00Z,30.2513,-88.0778,2.053,8.25,1111122 
DISL,ioos:station:DISL:DISL:1,2014-03-01T07:00:00Z,30.2513,-88.0778,2.04,8.3,1111122 
DISL,ioos:station:DISL:DISL:1,2014-03-01T07:30:00Z,30.2513,-88.0778,1.998,8.47,1111122 
DISL,ioos:station:DISL:DISL:1,2014-03-01T08:00:00Z,30.2513,-88.0778,1.975,9.05,1111122 
DISL,ioos:station:DISL:DISL:1,2014-03-01T08:30:00Z,30.2513,-88.0778,1.981,10.06,1111122 
DISL,ioos:station:DISL:DISL:1,2014-03-01T09:00:00Z,30.2513,-88.0778,1.937,10.28,1111122 
DISL,ioos:station:DISL:DISL:1,2014-03-01T09:30:00Z,30.2513,-88.0778,1.932,10.27,1111122 
DISL,ioos:station:DISL:DISL:1,2014-03-01T10:00:00Z,30.2513,-88.0778,1.926,10.24,1111122 
DISL,ioos:station:DISL:DISL:1,2014-03-01T10:30:00Z,30.2513,-88.0778,1.93,10.27,1111122 
DISL,ioos:station:DISL:DISL:1,2014-03-01T11:00:00Z,30.2513,-88.0778,1.887,10.25,1111122 
DISL,ioos:station:DISL:DISL:1,2014-03-01T11:30:00Z,30.2513,-88.0778,1.887,10.22,1111122 
DISL,ioos:station:DISL:DISL:1,2014-03-01T12:00:00Z,30.2513,-88.0778,1.855,10.16,1111122 
DISL,ioos:station:DISL:DISL:1,2014-03-01T12:30:00Z,30.2513,-88.0778,1.84,10.2,1111122 
DISL,ioos:station:DISL:DISL:1,2014-03-01T13:00:00Z,30.2513,-88.0778,1.812,10.24,1111122 
DISL,ioos:station:DISL:DISL:1,2014-03-01T13:30:00Z,30.2513,-88.0778,1.829,10.28,1111122 
DISL,ioos:station:DISL:DISL:1,2014-03-01T14:00:00Z,30.2513,-88.0778,1.796,10.3,1111122 
DISL,ioos:station:DISL:DISL:1,2014-03-01T14:30:00Z,30.2513,-88.0778,1.798,10.37,1111122 
DISL,ioos:station:DISL:DISL:1,2014-03-01T15:00:00Z,30.2513,-88.0778,1.789,10.72,1111122 
DISL,ioos:station:DISL:DISL:1,2014-03-01T15:30:00Z,30.2513,-88.0778,1.773,11.16,1111122 
DISL,ioos:station:DISL:DISL:1,2014-03-01T16:00:00Z,30.2513,-88.0778,1.787,11.23,1111122 
DISL,ioos:station:DISL:DISL:1,2014-03-01T16:30:00Z,30.2513,-88.0778,1.788,11.18,1111122 
DISL,ioos:station:DISL:DISL:1,2014-03-01T17:00:00Z,30.2513,-88.0778,1.8,11.22,1111122 
DISL,ioos:station:DISL:DISL:1,2014-03-01T17:30:00Z,30.2513,-88.0778,1.805,11.14,1111122 
DISL,ioos:station:DISL:DISL:1,2014-03-01T18:00:00Z,30.2513,-88.0778,1.805,10.71,1111122 
DISL,ioos:station:DISL:DISL:1,2014-03-01T18:30:00Z,30.2513,-88.0778,1.809,10.69,1111122 
DISL,ioos:station:DISL:DISL:1,2014-03-01T19:00:00Z,30.2513,-88.0778,1.816,10.51,1111122 
DISL,ioos:station:DISL:DISL:1,2014-03-01T19:30:00Z,30.2513,-88.0778,1.816,10.47,1111122 
DISL,ioos:station:DISL:DISL:1,2014-03-01T20:00:00Z,30.2513,-88.0778,1.816,10.9,1111122 
DISL,ioos:station:DISL:DISL:1,2014-03-01T20:30:00Z,30.2513,-88.0778,1.811,11.08,1111122 
DISL,ioos:station:DISL:DISL:1,2014-03-01T21:00:00Z,30.2513,-88.0778,1.812,11.71,1111122 
DISL,ioos:station:DISL:DISL:1,2014-03-01T21:30:00Z,30.2513,-88.0778,1.817,12.26,1111122 
DISL,ioos:station:DISL:DISL:1,2014-03-01T22:00:00Z,30.2513,-88.0778,1.816,12.3,1111122 
DISL,ioos:station:DISL:DISL:1,2014-03-01T22:30:00Z,30.2513,-88.0778,1.823,12.7,1111122 
DISL,ioos:station:DISL:DISL:1,2014-03-01T23:00:00Z,30.2513,-88.0778,1.833,12.79,1111122 
DISL,ioos:station:DISL:DISL:1,2014-03-01T23:30:00Z,30.2513,-88.0778,1.854,12.36,1111122 
DISL,ioos:station:DISL:DISL:1,2014-03-02T00:00:00Z,30.2513,-88.0778,1.858,12.18,1111122 
DISL,ioos:station:DISL:DISL:1,2014-03-02T00:30:00Z,30.2513,-88.0778,1.871,11.99,1111122 
DISL,ioos:station:DISL:DISL:1,2014-03-02T01:00:00Z,30.2513,-88.0778,1.894,11.88,1111122 
DISL,ioos:station:DISL:DISL:1,2014-03-02T01:30:00Z,30.2513,-88.0778,1.895,11.59,1111122 
DISL,ioos:station:DISL:DISL:1,2014-03-02T02:00:00Z,30.2513,-88.0778,1.908,10.83,1111122 
DISL,ioos:station:DISL:DISL:1,2014-03-02T02:30:00Z,30.2513,-88.0778,1.913,10.87,1111122 
DISL,ioos:station:DISL:DISL:1,2014-03-02T03:00:00Z,30.2513,-88.0778,1.933,9.67,1111122 
DISL,ioos:station:DISL:DISL:1,2014-03-02T03:30:00Z,30.2513,-88.0778,1.928,10.84,1111122 
DISL,ioos:station:DISL:DISL:1,2014-03-02T04:00:00Z,30.2513,-88.0778,1.946,11.06,1111122 
DISL,ioos:station:DISL:DISL:1,2014-03-02T04:30:00Z,30.2513,-88.0778,1.972,10.73,1111122 
DISL,ioos:station:DISL:DISL:1,2014-03-02T05:00:00Z,30.2513,-88.0778,1.974,11.32,1111122 
DISL,ioos:station:DISL:DISL:1,2014-03-02T05:30:00Z,30.2513,-88.0778,1.981,11.0,1111122 
DISL,ioos:station:DISL:DISL:1,2014-03-02T06:00:00Z,30.2513,-88.0778,1.997,10.37,1111122 
DISL,ioos:station:DISL:DISL:1,2014-03-02T06:30:00Z,30.2513,-88.0778,2.008,10.31,1111122 
DISL,ioos:station:DISL:DISL:1,2014-03-02T07:00:00Z,30.2513,-88.0778,2.003,10.76,1111122 
DISL,ioos:station:DISL:DISL:1,2014-03-02T07:30:00Z,30.2513,-88.0778,1.991,10.85,1111122 
DISL,ioos:station:DISL:DISL:1,2014-03-02T08:00:00Z,30.2513,-88.0778,1.989,10.85,1111122 
DISL,ioos:station:DISL:DISL:1,2014-03-02T08:30:00Z,30.2513,-88.0778,1.97,10.84,1111122 
DISL,ioos:station:DISL:DISL:1,2014-03-02T09:00:00Z,30.2513,-88.0778,1.943,11.19,1111122 
DISL,ioos:station:DISL:DISL:1,2014-03-02T09:30:00Z,30.2513,-88.0778,1.941,11.18,1111122 
DISL,ioos:station:DISL:DISL:1,2014-03-02T10:00:00Z,30.2513,-88.0778,1.928,11.21,1111122 
DISL,ioos:station:DISL:DISL:1,2014-03-02T10:30:00Z,30.2513,-88.0778,1.916,11.03,1111122 
DISL,ioos:station:DISL:DISL:1,2014-03-02T11:00:00Z,30.2513,-88.0778,1.904,10.97,1111122 
DISL,ioos:station:DISL:DISL:1,2014-03-02T11:30:00Z,30.2513,-88.0778,1.897,11.02,1111122 
DISL,ioos:station:DISL:DISL:1,2014-03-02T12:00:00Z,30.2513,-88.0778,1.886,10.97,1111122 
DISL,ioos:station:DISL:DISL:1,2014-03-02T12:30:00Z,30.2513,-88.0778,1.876,10.82,1111122 
DISL,ioos:station:DISL:DISL:1,2014-03-02T13:00:00Z,30.2513,-88.0778,1.872,10.8,1111122 
DISL,ioos:station:DISL:DISL:1,2014-03-02T13:30:00Z,30.2513,-88.0778,1.879,10.62,1111122 
DISL,ioos:station:DISL:DISL:1,2014-03-02T14:00:00Z,30.2513,-88.0778,1.868,10.75,1111122 
DISL,ioos:station:DISL:DISL:1,2014-03-02T14:30:00Z,30.2513,-88.0778,1.868,10.65,1111122 
DISL,ioos:station:DISL:DISL:1,2014-03-02T15:00:00Z,30.2513,-88.0778,1.874,10.64,1111122 
DISL,ioos:station:DISL:DISL:1,2014-03-02T15:30:00Z,30.2513,-88.0778,1.863,10.11,1111122 
DISL,ioos:station:DISL:DISL:1,2014-03-02T16:00:00Z,30.2513,-88.0778,1.877,10.54,1111122 
DISL,ioos:station:DISL:DISL:1,2014-03-02T16:30:00Z,30.2513,-88.0778,1.875,10.58,1111122 
DISL,ioos:station:DISL:DISL:1,2014-03-02T17:00:00Z,30.2513,-88.0778,1.887,10.4,1111122 
DISL,ioos:station:DISL:DISL:1,2014-03-02T17:30:00Z,30.2513,-88.0778,1.888,10.5,1111122 
DISL,ioos:station:DISL:DISL:1,2014-03-02T18:00:00Z,30.2513,-88.0778,1.899,10.81,1111122 
DISL,ioos:station:DISL:DISL:1,2014-03-02T18:30:00Z,30.2513,-88.0778,1.89,10.65,1111122 
DISL,ioos:station:DISL:DISL:1,2014-03-02T19:00:00Z,30.2513,-88.0778,1.904,10.97,1111122 
DISL,ioos:station:DISL:DISL:1,2014-03-02T19:30:00Z,30.2513,-88.0778,1.887,11.02,1111122 
DISL,ioos:station:DISL:DISL:1,2014-03-02T20:00:00Z,30.2513,-88.0778,1.9,10.89,1111122 
DISL,ioos:station:DISL:DISL:1,2014-03-02T20:30:00Z,30.2513,-88.0778,1.808,11.36,1111122 
DISL,ioos:station:DISL:DISL:1,2014-03-02T21:00:00Z,30.2513,-88.0778,1.886,11.52,1111122 
DISL,ioos:station:DISL:DISL:1,2014-03-02T21:30:00Z,30.2513,-88.0778,1.856,11.89,1111122 
DISL,ioos:station:DISL:DISL:1,2014-03-02T22:00:00Z,30.2513,-88.0778,1.855,11.91,1111122 
DISL,ioos:station:DISL:DISL:1,2014-03-02T22:30:00Z,30.2513,-88.0778,1.847,11.99,1111122 
DISL,ioos:station:DISL:DISL:1,2014-03-02T23:00:00Z,30.2513,-88.0778,1.851,11.95,1111122 
DISL,ioos:station:DISL:DISL:1,2014-03-02T23:30:00Z,30.2513,-88.0778,1.839,12.08,1111122 
DISL,ioos:station:DISL:DISL:1,2014-03-03T00:00:00Z,30.2513,-88.0778,1.828,11.98,1111122 
DISL,ioos:station:DISL:DISL:1,2014-03-03T00:30:00Z,30.2513,-88.0778,1.84,11.65,1111122 
DISL,ioos:station:DISL:DISL:1,2014-03-03T01:00:00Z,30.2513,-88.0778,1.836,11.48,1111122 
DISL,ioos:station:DISL:DISL:1,2014-03-03T01:30:00Z,30.2513,-88.0778,1.846,11.34,1111122 
DISL,ioos:station:DISL:DISL:1,2014-03-03T02:00:00Z,30.2513,-88.0778,1.856,10.92,1111122 
DISL,ioos:station:DISL:DISL:1,2014-03-03T02:30:00Z,30.2513,-88.0778,1.87,10.72,1111122 
DISL,ioos:station:DISL:DISL:1,2014-03-03T03:00:00Z,30.2513,-88.0778,1.888,10.92,1111122 
DISL,ioos:station:DISL:DISL:1,2014-03-03T03:30:00Z,30.2513,-88.0778,1.897,10.18,1111122 
DISL,ioos:station:DISL:DISL:1,2014-03-03T04:00:00Z,30.2513,-88.0778,1.902,10.34,1111122 
DISL,ioos:station:DISL:DISL:1,2014-03-03T04:30:00Z,30.2513,-88.0778,1.919,10.39,1111122 
DISL,ioos:station:DISL:DISL:1,2014-03-03T05:00:00Z,30.2513,-88.0778,1.934,10.42,1111122 
DISL,ioos:station:DISL:DISL:1,2014-03-03T05:30:00Z,30.2513,-88.0778,1.95,10.87,1111122 
DISL,ioos:station:DISL:DISL:1,2014-03-03T06:00:00Z,30.2513,-88.0778,1.97,10.68,1111122 
DISL,ioos:station:DISL:DISL:1,2014-03-03T06:30:00Z,30.2513,-88.0778,1.99,10.61,1111122 
DISL,ioos:station:DISL:DISL:1,2014-03-03T07:00:00Z,30.2513,-88.0778,2.006,10.5,1111122 
DISL,ioos:station:DISL:DISL:1,2014-03-03T07:30:00Z,30.2513,-88.0778,2.019,10.46,1111122 
DISL,ioos:station:DISL:DISL:1,2014-03-03T08:00:00Z,30.2513,-88.0778,2.023,10.39,1111122 
DISL,ioos:station:DISL:DISL:1,2014-03-03T08:30:00Z,30.2513,-88.0778,2.021,10.23,1111122 
DISL,ioos:station:DISL:DISL:1,2014-03-03T09:00:00Z,30.2513,-88.0778,1.98,10.04,1111122 
DISL,ioos:station:DISL:DISL:1,2014-03-03T09:30:00Z,30.2513,-88.0778,1.994,9.77,1111122 
DISL,ioos:station:DISL:DISL:1,2014-03-03T10:00:00Z,30.2513,-88.0778,1.945,9.92,1111122 
DISL,ioos:station:DISL:DISL:1,2014-03-03T10:30:00Z,30.2513,-88.0778,1.965,9.79,1111122 
DISL,ioos:station:DISL:DISL:1,2014-03-03T11:00:00Z,30.2513,-88.0778,1.953,10.65,1111122 
DISL,ioos:station:DISL:DISL:1,2014-03-03T11:30:00Z,30.2513,-88.0778,1.963,10.63,1111122 
DISL,ioos:station:DISL:DISL:1,2014-03-03T12:00:00Z,30.2513,-88.0778,1.97,10.65,1111122 
DISL,ioos:station:DISL:DISL:1,2014-03-03T12:30:00Z,30.2513,-88.0778,1.967,10.44,1111122 
DISL,ioos:station:DISL:DISL:1,2014-03-03T13:00:00Z,30.2513,-88.0778,1.962,9.92,1111122 
DISL,ioos:station:DISL:DISL:1,2014-03-03T13:30:00Z,30.2513,-88.0778,1.991,9.42,1111122 
DISL,ioos:station:DISL:DISL:1,2014-03-03T14:00:00Z,30.2513,-88.0778,2.003,9.71,1111122 
DISL,ioos:station:DISL:DISL:1,2014-03-03T14:30:00Z,30.2513,-88.0778,1.998,9.15,1111122 
DISL,ioos:station:DISL:DISL:1,2014-03-03T15:00:00Z,30.2513,-88.0778,2.007,9.77,1111122 
DISL,ioos:station:DISL:DISL:1,2014-03-03T15:30:00Z,30.2513,-88.0778,1.997,9.6,1111122 
DISL,ioos:station:DISL:DISL:1,2014-03-03T16:00:00Z,30.2513,-88.0778,2.022,9.23,1111122 
DISL,ioos:station:DISL:DISL:1,2014-03-03T16:30:00Z,30.2513,-88.0778,2.049,8.83,1111122 
DISL,ioos:station:DISL:DISL:1,2014-03-03T17:00:00Z,30.2513,-88.0778,1.93,8.78,1111122 
DISL,ioos:station:DISL:DISL:1,2014-03-03T17:30:00Z,30.2513,-88.0778,1.993,9.09,1111122 
DISL,ioos:station:DISL:DISL:1,2014-03-03T18:00:00Z,30.2513,-88.0778,1.953,10.6,1111122 
DISL,ioos:station:DISL:DISL:1,2014-03-03T18:30:00Z,30.2513,-88.0778,1.936,11.0,1111122 
DISL,ioos:station:DISL:DISL:1,2014-03-03T19:00:00Z,30.2513,-88.0778,1.89,11.06,1111122 
DISL,ioos:station:DISL:DISL:1,2014-03-03T19:30:00Z,30.2513,-88.0778,1.894,10.95,1111122 
DISL,ioos:station:DISL:DISL:1,2014-03-03T20:00:00Z,30.2513,-88.0778,1.9,10.99,1111122 
DISL,ioos:station:DISL:DISL:1,2014-03-03T20:30:00Z,30.2513,-88.0778,1.862,10.9,1111122 
DISL,ioos:station:DISL:DISL:1,2014-03-03T21:00:00Z,30.2513,-88.0778,1.87,10.85,1111122 
DISL,ioos:station:DISL:DISL:1,2014-03-03T21:30:00Z,30.2513,-88.0778,1.867,10.84,1111122 
DISL,ioos:station:DISL:DISL:1,2014-03-03T22:00:00Z,30.2513,-88.0778,1.957,11.11,1111122 
DISL,ioos:station:DISL:DISL:1,2014-03-03T22:30:00Z,30.2513,-88.0778,1.759,10.76,1111122 
DISL,ioos:station:DISL:DISL:1,2014-03-03T23:00:00Z,30.2513,-88.0778,1.802,10.97,1111122 
DISL,ioos:station:DISL:DISL:1,2014-03-03T23:30:00Z,30.2513,-88.0778,1.865,10.86,1111122 
DISL,ioos:station:DISL:DISL:1,2014-03-04T00:00:00Z,30.2513,-88.0778,1.796,10.58,1111122 
DISL,ioos:station:DISL:DISL:1,2014-03-04T00:30:00Z,30.2513,-88.0778,1.836,10.68,1111122 
DISL,ioos:station:DISL:DISL:1,2014-03-04T01:00:00Z,30.2513,-88.0778,1.829,10.7,1111122 
DISL,ioos:station:DISL:DISL:1,2014-03-04T01:30:00Z,30.2513,-88.0778,1.753,10.57,1111122 
DISL,ioos:station:DISL:DISL:1,2014-03-04T02:00:00Z,30.2513,-88.0778,1.73,10.62,1111122 
DISL,ioos:station:DISL:DISL:1,2014-03-04T02:30:00Z,30.2513,-88.0778,1.738,10.59,1111122 
DISL,ioos:station:DISL:DISL:1,2014-03-04T03:00:00Z,30.2513,-88.0778,1.732,10.5,1111122 
DISL,ioos:station:DISL:DISL:1,2014-03-04T03:30:00Z,30.2513,-88.0778,1.738,10.45,1111122 
DISL,ioos:station:DISL:DISL:1,2014-03-04T04:00:00Z,30.2513,-88.0778,1.675,10.42,1111122 
DISL,ioos:station:DISL:DISL:1,2014-03-04T04:30:00Z,30.2513,-88.0778,1.762,10.45,1111122 
DISL,ioos:station:DISL:DISL:1,2014-03-04T05:00:00Z,30.2513,-88.0778,1.722,10.31,1111122 
DISL,ioos:station:DISL:DISL:1,2014-03-04T05:30:00Z,30.2513,-88.0778,1.74,10.31,1111122 
DISL,ioos:station:DISL:DISL:1,2014-03-04T06:00:00Z,30.2513,-88.0778,1.616,10.31,1111122 
DISL,ioos:station:DISL:DISL:1,2014-03-04T06:30:00Z,30.2513,-88.0778,1.755,10.24,1111122 
DISL,ioos:station:DISL:DISL:1,2014-03-04T07:00:00Z,30.2513,-88.0778,1.749,10.25,1111122 
DISL,ioos:station:DISL:DISL:1,2014-03-04T07:30:00Z,30.2513,-88.0778,1.766,10.21,1111122 
DISL,ioos:station:DISL:DISL:1,2014-03-04T08:00:00Z,30.2513,-88.0778,1.765,10.17,1111122 
DISL,ioos:station:DISL:DISL:1,2014-03-04T08:30:00Z,30.2513,-88.0778,1.768,10.18,1111122 
DISL,ioos:station:DISL:DISL:1,2014-03-04T09:00:00Z,30.2513,-88.0778,1.802,10.15,1111122 
DISL,ioos:station:DISL:DISL:1,2014-03-04T09:30:00Z,30.2513,-88.0778,1.808,10.03,1111122 
DISL,ioos:station:DISL:DISL:1,2014-03-04T10:00:00Z,30.2513,-88.0778,1.827,9.95,1111122 
DISL,ioos:station:DISL:DISL:1,2014-03-04T10:30:00Z,30.2513,-88.0778,1.837,9.95,1111122 
DISL,ioos:station:DISL:DISL:1,2014-03-04T11:00:00Z,30.2513,-88.0778,1.831,9.87,1111122 
DISL,ioos:station:DISL:DISL:1,2014-03-04T11:30:00Z,30.2513,-88.0778,1.837,9.8,1111122 
DISL,ioos:station:DISL:DISL:1,2014-03-04T12:00:00Z,30.2513,-88.0778,1.838,9.85,1111122 
DISL,ioos:station:DISL:DISL:1,2014-03-04T12:30:00Z,30.2513,-88.0778,1.858,10.14,1111122 
DISL,ioos:station:DISL:DISL:1,2014-03-04T13:00:00Z,30.2513,-88.0778,1.89,10.24,1111122 
DISL,ioos:station:DISL:DISL:1,2014-03-04T13:30:00Z,30.2513,-88.0778,1.869,10.18,1111122 
DISL,ioos:station:DISL:DISL:1,2014-03-04T14:00:00Z,30.2513,-88.0778,1.886,10.15,1111122 
DISL,ioos:station:DISL:DISL:1,2014-03-04T14:30:00Z,30.2513,-88.0778,1.932,8.24,1111122 
DISL,ioos:station:DISL:DISL:1,2014-03-04T15:00:00Z,30.2513,-88.0778,1.937,6.77,1111122 
DISL,ioos:station:DISL:DISL:1,2014-03-04T15:30:00Z,30.2513,-88.0778,1.907,6.77,1111122 
DISL,ioos:station:DISL:DISL:1,2014-03-04T16:00:00Z,30.2513,-88.0778,1.929,6.79,1111122 
DISL,ioos:station:DISL:DISL:1,2014-03-04T16:30:00Z,30.2513,-88.0778,1.96,7.26,1111122 
DISL,ioos:station:DISL:DISL:1,2014-03-04T17:00:00Z,30.2513,-88.0778,1.963,8.59,1111122 
DISL,ioos:station:DISL:DISL:1,2014-03-04T17:30:00Z,30.2513,-88.0778,1.964,8.89,1111122 
DISL,ioos:station:DISL:DISL:1,2014-03-04T18:00:00Z,30.2513,-88.0778,1.956,9.96,1111122 
DISL,ioos:station:DISL:DISL:1,2014-03-04T18:30:00Z,30.2513,-88.0778,1.988,10.23,1111122 
DISL,ioos:station:DISL:DISL:1,2014-03-04T19:00:00Z,30.2513,-88.0778,1.98,10.65,1111122 
DISL,ioos:station:DISL:DISL:1,2014-03-04T19:30:00Z,30.2513,-88.0778,1.971,11.26,1111122 
DISL,ioos:station:DISL:DISL:1,2014-03-04T20:00:00Z,30.2513,-88.0778,1.94,10.48,1111122 
DISL,ioos:station:DISL:DISL:1,2014-03-04T20:30:00Z,30.2513,-88.0778,1.98,11.39,1111122 
DISL,ioos:station:DISL:DISL:1,2014-03-04T21:00:00Z,30.2513,-88.0778,1.957,11.13,1111122 
DISL,ioos:station:DISL:DISL:1,2014-03-04T21:30:00Z,30.2513,-88.0778,1.918,11.36,1111122 
DISL,ioos:station:DISL:DISL:1,2014-03-04T22:00:00Z,30.2513,-88.0778,1.872,11.36,1111122 
DISL,ioos:station:DISL:DISL:1,2014-03-04T22:30:00Z,30.2513,-88.0778,1.83,11.11,1111122 
DISL,ioos:station:DISL:DISL:1,2014-03-04T23:00:00Z,30.2513,-88.0778,1.888,11.32,1111122 
DISL,ioos:station:DISL:DISL:1,2014-03-04T23:30:00Z,30.2513,-88.0778,1.879,10.7,1111122 
DISL,ioos:station:DISL:DISL:1,2014-03-05T00:00:00Z,30.2513,-88.0778,1.817,10.41,1111122 
DISL,ioos:station:DISL:DISL:1,2014-03-05T00:30:00Z,30.2513,-88.0778,1.816,10.46,1111122 
DISL,ioos:station:DISL:DISL:1,2014-03-05T01:00:00Z,30.2513,-88.0778,1.801,10.45,1111122 
DISL,ioos:station:DISL:DISL:1,2014-03-05T01:30:00Z,30.2513,-88.0778,1.787,10.43,1111122 
DISL,ioos:station:DISL:DISL:1,2014-03-05T02:00:00Z,30.2513,-88.0778,1.775,10.43,1111122 
DISL,ioos:station:DISL:DISL:1,2014-03-05T02:30:00Z,30.2513,-88.0778,1.768,10.43,1111122 
DISL,ioos:station:DISL:DISL:1,2014-03-05T03:00:00Z,30.2513,-88.0778,1.792,10.44,1111122 
DISL,ioos:station:DISL:DISL:1,2014-03-05T03:30:00Z,30.2513,-88.0778,1.763,10.46,1111122 
DISL,ioos:station:DISL:DISL:1,2014-03-05T04:00:00Z,30.2513,-88.0778,1.784,10.45,1111122 
DISL,ioos:station:DISL:DISL:1,2014-03-05T04:30:00Z,30.2513,-88.0778,1.779,10.42,1111122 
DISL,ioos:station:DISL:DISL:1,2014-03-05T05:00:00Z,30.2513,-88.0778,1.765,10.42,1111122 
DISL,ioos:station:DISL:DISL:1,2014-03-05T05:30:00Z,30.2513,-88.0778,1.75,10.43,1111122 
DISL,ioos:station:DISL:DISL:1,2014-03-05T06:00:00Z,30.2513,-88.0778,1.723,10.34,1111122 
DISL,ioos:station:DISL:DISL:1,2014-03-05T06:30:00Z,30.2513,-88.0778,1.76,10.31,1111122 
DISL,ioos:station:DISL:DISL:1,2014-03-05T07:00:00Z,30.2513,-88.0778,1.736,10.23,1111122 
DISL,ioos:station:DISL:DISL:1,2014-03-05T07:30:00Z,30.2513,-88.0778,1.778,10.27,1111122 
DISL,ioos:station:DISL:DISL:1,2014-03-05T08:00:00Z,30.2513,-88.0778,1.768,10.23,1111122 
DISL,ioos:station:DISL:DISL:1,2014-03-05T08:30:00Z,30.2513,-88.0778,1.793,10.21,1111122 
DISL,ioos:station:DISL:DISL:1,2014-03-05T09:00:00Z,30.2513,-88.0778,1.82,9.65,1111122 
DISL,ioos:station:DISL:DISL:1,2014-03-05T09:30:00Z,30.2513,-88.0778,1.87,9.59,1111122 
DISL,ioos:station:DISL:DISL:1,2014-03-05T10:00:00Z,30.2513,-88.0778,1.861,9.92,1111122 
DISL,ioos:station:DISL:DISL:1,2014-03-05T10:30:00Z,30.2513,-88.0778,1.859,9.93,1111122 
DISL,ioos:station:DISL:DISL:1,2014-03-05T11:00:00Z,30.2513,-88.0778,1.898,9.92,1111122 
DISL,ioos:station:DISL:DISL:1,2014-03-05T11:30:00Z,30.2513,-88.0778,1.908,9.94,1111122 
DISL,ioos:station:DISL:DISL:1,2014-03-05T12:00:00Z,30.2513,-88.0778,1.915,9.92,1111122 
DISL,ioos:station:DISL:DISL:1,2014-03-05T12:30:00Z,30.2513,-88.0778,1.906,10.26,1111122 
DISL,ioos:station:DISL:DISL:1,2014-03-05T13:00:00Z,30.2513,-88.0778,1.945,9.59,1111122 
DISL,ioos:station:DISL:DISL:1,2014-03-05T13:30:00Z,30.2513,-88.0778,1.896,8.01,1111122 
DISL,ioos:station:DISL:DISL:1,2014-03-05T14:00:00Z,30.2513,-88.0778,1.971,8.94,1111122 
DISL,ioos:station:DISL:DISL:1,2014-03-05T14:30:00Z,30.2513,-88.0778,1.941,8.69,1111122 
DISL,ioos:station:DISL:DISL:1,2014-03-05T15:00:00Z,30.2513,-88.0778,1.992,7.73,1111122 
DISL,ioos:station:DISL:DISL:1,2014-03-05T15:30:00Z,30.2513,-88.0778,1.986,8.16,1111122 
DISL,ioos:station:DISL:DISL:1,2014-03-05T16:00:00Z,30.2513,-88.0778,1.984,6.85,1111122 
DISL,ioos:station:DISL:DISL:1,2014-03-05T16:30:00Z,30.2513,-88.0778,1.993,6.81,1111122 
DISL,ioos:station:DISL:DISL:1,2014-03-05T17:00:00Z,30.2513,-88.0778,2.029,6.88,1111122 
DISL,ioos:station:DISL:DISL:1,2014-03-05T17:30:00Z,30.2513,-88.0778,2.036,6.82,1111122 
DISL,ioos:station:DISL:DISL:1,2014-03-05T18:00:00Z,30.2513,-88.0778,2.058,7.2,1111122 
DISL,ioos:station:DISL:DISL:1,2014-03-05T18:30:00Z,30.2513,-88.0778,2.049,8.11,1111122 
DISL,ioos:station:DISL:DISL:1,2014-03-05T19:00:00Z,30.2513,-88.0778,2.092,8.76,1111122 
DISL,ioos:station:DISL:DISL:1,2014-03-05T19:30:00Z,30.2513,-88.0778,2.08,9.23,1111122 
DISL,ioos:station:DISL:DISL:1,2014-03-05T20:00:00Z,30.2513,-88.0778,2.123,10.76,1111122 
DISL,ioos:station:DISL:DISL:1,2014-03-05T20:30:00Z,30.2513,-88.0778,2.088,11.01,1111122 
DISL,ioos:station:DISL:DISL:1,2014-03-05T21:00:00Z,30.2513,-88.0778,2.107,11.23,1111122 
DISL,ioos:station:DISL:DISL:1,2014-03-05T21:30:00Z,30.2513,-88.0778,2.081,11.7,1111122 
DISL,ioos:station:DISL:DISL:1,2014-03-05T22:00:00Z,30.2513,-88.0778,2.057,11.67,1111122 
DISL,ioos:station:DISL:DISL:1,2014-03-05T22:30:00Z,30.2513,-88.0778,2.053,11.68,1111122 
DISL,ioos:station:DISL:DISL:1,2014-03-05T23:00:00Z,30.2513,-88.0778,2.009,11.97,1111122 
DISL,ioos:station:DISL:DISL:1,2014-03-05T23:30:00Z,30.2513,-88.0778,1.974,12.05,1111122 
DISL,ioos:station:DISL:DISL:1,2014-03-06T00:00:00Z,30.2513,-88.0778,1.973,11.92,1111122 
DISL,ioos:station:DISL:DISL:1,2014-03-06T00:30:00Z,30.2513,-88.0778,1.987,11.6,1111122 
DISL,ioos:station:DISL:DISL:1,2014-03-06T01:00:00Z,30.2513,-88.0778,1.939,12.13,1111122 
DISL,ioos:station:DISL:DISL:1,2014-03-06T01:30:00Z,30.2513,-88.0778,1.906,11.58,1111122 
DISL,ioos:station:DISL:DISL:1,2014-03-06T02:00:00Z,30.2513,-88.0778,1.887,11.36,1111122 
DISL,ioos:station:DISL:DISL:1,2014-03-06T02:30:00Z,30.2513,-88.0778,1.869,11.4,1111122 
DISL,ioos:station:DISL:DISL:1,2014-03-06T03:00:00Z,30.2513,-88.0778,1.856,11.38,1111122 
DISL,ioos:station:DISL:DISL:1,2014-03-06T03:30:00Z,30.2513,-88.0778,1.846,11.38,1111122 
DISL,ioos:station:DISL:DISL:1,2014-03-06T04:00:00Z,30.2513,-88.0778,1.831,11.2,1111122 
DISL,ioos:station:DISL:DISL:1,2014-03-06T04:30:00Z,30.2513,-88.0778,1.819,11.09,1111122 
DISL,ioos:station:DISL:DISL:1,2014-03-06T05:00:00Z,30.2513,-88.0778,1.796,10.88,1111122 
DISL,ioos:station:DISL:DISL:1,2014-03-06T05:30:00Z,30.2513,-88.0778,1.804,10.77,1111122 
DISL,ioos:station:DISL:DISL:1,2014-03-06T06:00:00Z,30.2513,-88.0778,1.825,10.81,1111122 
DISL,ioos:station:DISL:DISL:1,2014-03-06T06:30:00Z,30.2513,-88.0778,1.807,10.96,1111122 
DISL,ioos:station:DISL:DISL:1,2014-03-06T07:00:00Z,30.2513,-88.0778,1.789,10.81,1111122 
DISL,ioos:station:DISL:DISL:1,2014-03-06T07:30:00Z,30.2513,-88.0778,1.817,10.85,1111122 
DISL,ioos:station:DISL:DISL:1,2014-03-06T08:00:00Z,30.2513,-88.0778,1.843,10.79,1111122 
DISL,ioos:station:DISL:DISL:1,2014-03-06T08:30:00Z,30.2513,-88.0778,1.84,10.81,1111122 
DISL,ioos:station:DISL:DISL:1,2014-03-06T09:00:00Z,30.2513,-88.0778,1.848,10.57,1111122 
DISL,ioos:station:DISL:DISL:1,2014-03-06T09:30:00Z,30.2513,-88.0778,1.829,10.62,1111122 
DISL,ioos:station:DISL:DISL:1,2014-03-06T10:00:00Z,30.2513,-88.0778,1.891,10.3,1111122 
DISL,ioos:station:DISL:DISL:1,2014-03-06T10:30:00Z,30.2513,-88.0778,1.869,9.55,1111122 
DISL,ioos:station:DISL:DISL:1,2014-03-06T11:00:00Z,30.2513,-88.0778,1.862,9.86,1111122 
DISL,ioos:station:DISL:DISL:1,2014-03-06T11:30:00Z,30.2513,-88.0778,2.025,10.13,1111122 
DISL,ioos:station:DISL:DISL:1,2014-03-06T12:00:00Z,30.2513,-88.0778,1.967,9.77,1111122 
DISL,ioos:station:DISL:DISL:1,2014-03-06T12:30:00Z,30.2513,-88.0778,2.005,9.55,1111122 
DISL,ioos:station:DISL:DISL:1,2014-03-06T13:00:00Z,30.2513,-88.0778,1.965,9.06,1111122 
DISL,ioos:station:DISL:DISL:1,2014-03-06T13:30:00Z,30.2513,-88.0778,1.986,8.67,1111122 
DISL,ioos:station:DISL:DISL:1,2014-03-06T14:00:00Z,30.2513,-88.0778,1.991,8.34,1111122 
DISL,ioos:station:DISL:DISL:1,2014-03-06T14:30:00Z,30.2513,-88.0778,2.055,7.62,1111122 